If you wish to contribute or participate in the discussions about articles you are invited to join SKYbrary as a registered user

 Actions

Asturias

From SKYbrary Wiki

LEAS
Airport
ICAO: LEAS
Summary
Name Asturias
Region Europe
Territory Spain ES.gif
Location Asturias, Spain
Serving
Coordinates 43° 33' 34.42" N, 6° 1' 51.66" W
Runways
Designator Length Width Surface ROPS
11/29 2200 m7,217.848 ft
45 m147.638 ft
ASP yes/yes


METAR
Observation LEAS 250330Z AUTO 08007G17KT 030V140 9999 OVC027/// 11/08 Q1028
Station Asturias / Aviles
Date/Time 25 March 2019 03:30:00
Wind direction 80°
Wind speed 07 kts
Lowest cloud amount overcast
Temperature 11°C
Dew point 8°C
Humidity 81%
QNH 1028 hPa
Weather condition n/a

BS
Tag(s) Bird Strike
WX
Tag(s) Fog

Asturias Airport

ICAO: LEAS IATA: OVD

Description

International airport serving Asturias in northern spain.

Climatology

Temperate Marine climate/Oceanic climate (Köppen climate classification Cfb). Moderately cool summer and comparatively warm winter with a temperature range of only 14°C57.2 °F
287.15 K
516.87 °R
. Prevailing south-westerly winds from the Atlantic Ocean.

Maps

Terrain

Loading map...

Airport Layout

Loading map...


Accidents & Serious Incidents at or in vicinity of LEAS

None on SKYbrary